This demonstration page uses our WeatherBlox Daily Observations layout. Learn more.

Left ArrowRight Arrow

40.92945, -100.16068

Hourly Observations for September 8, 2020

Temp ( °F °C ) Dew Point ( °F °C ) Humidity (%) Winds ( mph kmh ) Pressure ( in mb ) Visibility ( mi km ) Precip ( " mm )
12:15 am 00:15 Cloudy 50 10 40 4.7 70 70 NE 23 37 30.02 1017 10 16 0.00 0.00
12:35 am 00:35 Cloudy 49 9.6 40 4.7 72 72 NE 24 39 30.02 1017 10 16 0.00 0.00
12:55 am 00:55 Cloudy 49 9.5 40 4.6 72 72 NE 20 31 30.05 1017 10 16 0.00 0.00
1:15 am 01:15 Cloudy 49 9.4 41 4.8 73 73 NE 21 33 30.03 1017 10 16 0.00 0.00
1:35 am 01:35 Cloudy 48 8.9 41 5.1 77 77 NE 22 35 30.06 1018 10 16 0.00 0.00
1:55 am 01:55 Windy with Storms Likely 46 7.5 42 5.7 88 88 NE 35 56 29.92 1013 5 8 0.03 0.76
2:15 am 02:15 Cloudy with Light Rain 46 7.6 42 5.7 88 88 NNE 16 26 30.06 1018 10 16 0.02 0.51
2:35 am 02:35 Cloudy with Thunderstorms 46 7.5 42 5.8 89 89 NNE 13 20 30.11 1020 10 16 0.02 0.51
2:55 am 02:55 Cloudy with Nearby Thunderstorms 46 7.5 42 5.8 89 89 NNE 17 28 30.12 1020 10 16 0.04 1.02
3:15 am 03:15 Cloudy with Nearby Thunderstorms 45 7.3 43 5.9 91 91 N 15 24 30.15 1021 4 6 0.09 2.29
3:35 am 03:35 Cloudy with Light Rain 45 7.1 43 6 93 93 NNE 17 28 30.14 1021 5 8 0.27 6.86
3:55 am 03:55 Cloudy with Light Rain 45 7.2 43 6 92 92 NNE 16 26 30.15 1021 5 8 0.32 8.13
4:15 am 04:15 Cloudy with Light Rain 45 7.1 43 6 93 93 NNE 18 30 30.15 1021 7 11 0.02 0.51
4:35 am 04:35 Cloudy with Light Rain 45 7 42 5.7 92 92 NNE 20 31 30.16 1021 10 16 0.03 0.76
4:55 am 04:55 Cloudy with Light Rain 44 6.8 42 5.6 92 92 NNE 17 28 30.18 1022 7 11 0.04 1.02
5:15 am 05:15 Cloudy with Light Rain 44 6.7 42 5.6 93 93 NNE 18 30 30.16 1021 7 11 0.02 0.51
5:35 am 05:35 Cloudy with Drizzle 44 6.5 42 5.5 93 93 NE 21 33 30.17 1022 10 16 0.03 0.76
5:55 am 05:55 Cloudy 44 6.5 41 5.2 92 92 NE 24 39 30.16 1021 10 16 0.03 0.76
6:15 am 06:15 Cloudy with Drizzle 44 6.5 41 5.2 92 92 NNE 22 35 30.19 1022 10 16 0.01 0.25
6:35 am 06:35 Cloudy with Light Rain 43 6.3 41 5.2 93 93 NNE 20 31 30.21 1023 7 11 0.01 0.25
6:55 am 06:55 Cloudy with Drizzle 43 6 40 4.6 91 91 NNE 22 35 30.22 1023 7 11 0.02 0.51
7:15 am 07:15 Cloudy 42 5.6 40 4.3 91 91 NNE 21 33 30.23 1024 10 16 0.00 0.00
7:35 am 07:35 Cloudy 41 5.1 39 3.7 91 91 NNE 28 44 30.25 1024 7 11 0.00 0.00
7:55 am 07:55 Cloudy with Light Rain 41 5 39 3.8 92 92 NNE 21 33 30.26 1025 4 6 0.00 0.00
8:15 am 08:15 Cloudy with Mist and Fog 40 4.7 38 3.6 93 93 NNE 20 31 30.27 1025 5 8 0.00 0.00
8:35 am 08:35 Cloudy with Mist and Fog 40 4.5 38 3.3 92 92 NNE 23 37 30.26 1025 5 8 0.00 0.00
8:55 am 08:55 Cloudy 40 4.3 37 3 91 91 NNE 24 39 30.28 1025 7 11 0.00 0.00
9:15 am 09:15 Cloudy 40 4.5 38 3.1 91 91 NNE 21 33 30.28 1026 7 11 0.00 0.00
9:35 am 09:35 Cloudy with Drizzle 40 4.5 38 3.3 92 92 NNE 20 31 30.29 1026 5 8 0.00 0.00
9:55 am 09:55 Cloudy with Drizzle 40 4.5 38 3.6 94 94 NNE 18 30 30.30 1026 3 5 0.00 0.00
10:15 am 10:15 Cloudy with Drizzle 40 4.5 38 3.5 93 93 NNE 15 24 30.31 1027 3 5 0.01 0.25
10:35 am 10:35 Cloudy 40 4.6 38 3.6 93 93 NNE 18 30 30.32 1027 3 5 0.01 0.25
10:55 am 10:55 Cloudy with Mist and Fog 41 4.8 39 3.7 93 93 NNE 17 28 30.32 1027 4 6 0.01 0.25
11:15 am 11:15 Cloudy with Mist and Fog 41 4.8 38 3.6 92 92 NNE 17 28 30.33 1027 4 6 0.00 0.00
11:35 am 11:35 Cloudy with Mist and Fog 41 5 39 3.8 92 92 NNE 17 28 30.33 1027 5 8 0.00 0.00
11:55 am 11:55 Cloudy with Mist and Fog 41 4.8 38 3.6 92 92 NNE 20 31 30.35 1028 5 8 0.00 0.00
12:15 pm 12:15 Cloudy with Mist and Fog 41 5 38 3.6 91 91 NNE 18 30 30.36 1028 3 5 0.00 0.00
12:35 pm 12:35 Cloudy with Drizzle 41 5 39 3.9 93 93 NNE 14 22 30.36 1028 3 4 0.01 0.25
12:55 pm 12:55 Cloudy with Light Rain 41 4.9 39 3.7 92 92 NNE 18 30 30.36 1028 3 4 0.01 0.25
1:15 pm 13:15 Cloudy with Nearby Thunderstorms 41 5 39 4 93 93 NNE 16 26 30.37 1028 4 6 0.00 0.00
1:35 pm 13:35 Cloudy with Mist and Fog 41 5.1 39 3.9 92 92 NNE 16 26 30.36 1028 5 8 0.01 0.25
1:55 pm 13:55 Cloudy with Drizzle 41 5.1 38 3.6 90 90 NNE 21 33 30.35 1028 5 8 0.01 0.25
2:15 pm 14:15 Cloudy 42 5.3 38 3.4 88 88 NNE 21 33 30.35 1028 10 16 0.00 0.00
2:35 pm 14:35 Cloudy 42 5.4 38 3.1 85 85 NNE 20 31 30.35 1028 10 16 0.00 0.00
2:55 pm 14:55 Cloudy 42 5.5 38 3.3 86 86 NNE 13 20 30.35 1028 10 16 0.00 0.00
3:15 pm 15:15 Cloudy with Nearby Thunderstorms 42 5.3 37 2.9 85 85 NNE 20 31 30.36 1028 10 16 0.00 0.00
3:35 pm 15:35 Cloudy with Nearby Thunderstorms 41 5.2 37 2.9 85 85 NNE 21 33 30.37 1028 10 16 0.00 0.00
3:55 pm 15:55 Cloudy 41 5.2 37 2.7 84 84 NNE 17 28 30.37 1028 10 16 0.00 0.00
4:15 pm 16:15 Cloudy with Nearby Thunderstorms 41 5.1 35 1.7 79 79 NNE 23 37 30.36 1028 10 16 0.00 0.00
4:35 pm 16:35 Cloudy with Nearby Thunderstorms 41 5.1 35 1.4 77 77 NNE 20 31 30.36 1028 10 16 0.00 0.00
4:55 pm 16:55 Cloudy with Nearby Thunderstorms 41 5.1 34 1.1 76 76 NNE 21 33 30.38 1029 10 16 0.00 0.00
5:15 pm 17:15 Cloudy with Drizzle 41 5 35 1.9 81 81 NNE 20 31 30.36 1028 10 16 0.00 0.00
5:35 pm 17:35 Cloudy 41 5 36 2.3 83 83 NNE 15 24 30.36 1028 10 16 0.00 0.00
5:55 pm 17:55 Cloudy 41 5.1 36 2.3 82 82 NNE 14 22 30.37 1028 10 16 0.00 0.00
6:15 pm 18:15 Cloudy with Drizzle 41 5.2 37 2.8 85 85 NNE 14 22 30.37 1028 10 16 0.00 0.00
6:35 pm 18:35 Cloudy 41 5.2 36 2.4 82 82 NNE 17 28 30.37 1028 10 16 0.00 0.00
6:55 pm 18:55 Cloudy 41 5 34 1.3 77 77 NNE 14 22 30.36 1028 10 16 0.00 0.00
7:15 pm 19:15 Cloudy with Light Rain 41 5 36 2 81 81 NNE 15 24 30.38 1029 10 16 0.00 0.00
7:35 pm 19:35 Cloudy 41 4.8 32 0.2 72 72 NNE 16 26 30.37 1028 10 16 0.00 0.00
7:55 pm 19:55 Cloudy 41 4.8 32 0 71 71 NNE 16 26 30.39 1029 10 16 0.00 0.00
8:15 pm 20:15 Cloudy 40 4.7 32 -0.2 71 71 NNE 17 28 30.38 1029 10 16 0.00 0.00
8:35 pm 20:35 Cloudy 40 4.6 32 -0.1 72 72 NNE 13 20 30.40 1030 10 16 0.00 0.00
8:55 pm 20:55 Cloudy with Light Rain 40 4.2 32 0 74 74 NNE 16 26 30.40 1029 10 16 0.00 0.00
9:15 pm 21:15 Cloudy with Light Rain 39 4 33 0.5 78 78 N 14 22 30.42 1030 10 16 0.01 0.25
9:35 pm 21:35 Cloudy 39 3.8 34 1.1 83 83 N 10 17 30.42 1030 10 16 0.01 0.25
9:55 pm 21:55 Cloudy with Drizzle 39 4 34 1.3 83 83 N 14 22 30.40 1029 10 16 0.01 0.25
10:15 pm 22:15 Cloudy 39 3.9 34 1.3 83 83 NNE 12 19 30.42 1030 10 16 0.01 0.25
10:35 pm 22:35 Cloudy with Nearby Thunderstorms 39 4 35 1.4 83 83 NNE 10 17 30.41 1030 10 16 0.01 0.25
10:55 pm 22:55 Cloudy 39 4.1 35 1.5 83 83 NNE 7 11 30.42 1030 10 16 0.01 0.25
11:15 pm 23:15 Cloudy with Nearby Thunderstorms 40 4.2 35 1.5 83 83 NNE 9 15 30.42 1030 10 16 0.00 0.00
11:35 pm 23:35 Cloudy 40 4.2 34 1.1 80 80 NNE 9 15 30.42 1030 10 16 0.00 0.00
11:55 pm 23:55 Cloudy 40 4.2 34 1.1 80 80 N 9 15 30.43 1030 10 16 0.00 0.00

Powered by AerisWeather